Simultaneous Nadir Overpasses (SNOs) Predictions

Prediction of SNOs between AQUA and METOP-B Satellite Orbit:

Table of predicted SNOs for the next 14.0 days since TLE Epoch: 1/18/2019
Index Date (AQUA) Time (AQUA) Lat,Lon (AQUA) SZA (AQUA ) Date (METOP-B) Time (METOP-B) Lat,Lon (METOP-B) SZA (METOP-B ) Distance(km) Time Diff (sec)
1 01/19/2019 04:23:25 73.85, 108.31 94.33 01/19/2019 04:22:39 73.86, 108.35 94.34 1.45 46
2 01/19/2019 05:12:51 -73.90, -84.16 85.63 01/19/2019 05:13:20 -73.92, -84.19 85.62 1.98 29
3 01/21/2019 23:57:41 73.83, 174.79 93.70 01/21/2019 23:57:04 73.84, 174.70 93.72 2.81 37
4 01/22/2019 00:47:08 -73.93, -17.78 86.21 01/22/2019 00:47:44 -73.95, -17.71 86.20 2.97 36
5 01/24/2019 19:31:57 73.87,-118.86 93.09 01/24/2019 19:31:27 73.86,-118.84 93.09 1.27 30
6 01/24/2019 20:21:23 -73.91, 48.71 86.88 01/24/2019 20:22:08 -73.92, 48.64 86.87 2.79 45
7 01/27/2019 14:16:33 -73.22, 141.33 88.31 01/27/2019 14:15:27 -73.12, 138.55 88.26 90.41 66
8 01/27/2019 15:06:13 73.86, -52.40 92.38 01/27/2019 15:05:51 73.88, -52.37 92.41 2.82 22
9 01/27/2019 15:55:40 -73.94, 115.07 87.55 01/27/2019 15:56:32 -73.95, 115.11 87.55 1.87 52
10 01/30/2019 09:50:55 -73.52,-152.85 88.73 01/30/2019 09:49:45 -73.45,-154.33 88.72 47.23 70
11 01/30/2019 10:40:29 73.85, 14.06 91.63 01/30/2019 10:40:16 73.86, 13.97 91.64 2.76 13
12 01/30/2019 11:29:56 -73.93,-178.47 88.31 01/30/2019 11:30:57 -73.93,-178.54 88.31 2.34 61




NCC Satellite Simultaneous Nadir Overpasses (SNOs) Prediction Service
